Fitchburg, MA

4:54 AM EST on December 13, 2019 (GMT -0500)
Fitchburg Municipal

Weather History for KFIT - June, 2019

Change the Weather History Date:

Sunday, June 2, 2019

  Actual Average (WUND) Record (WUND)
Temperature  
Mean Temperature 66 °F -  
Max Temperature 78 °F - - (-1)
Min Temperature 57 °F - - (-1)
Cooling Degree Days 1    
Growing Degree Days 16 (Base 50)    
Moisture  
Dew Point 57 °F    
Average Humidity 87    
Maximum Humidity 96    
Minimum Humidity 54    
Precipitation  
Precipitation 1.56 in - - ()
Sea Level Pressure  
Sea Level Pressure 29.73 in    
Wind  
Wind Speed 3 mph (East)    
Max Wind Speed 15 mph    
Max Gust Speed 30 mph    
Visibility 5 miles    
Events Fog , Rain , Thunderstorm    
Averages and records for this station are not official NWS values.
T = Trace of Precipitation, MM = Missing Value Source: NWS Daily Summary

Daily Weather History Graph

Daily Weather History Graph

Search for Another Location

Airport or City:

Astronomy

Jun. 02, 2019 Rise Set
Actual Time 5:11 AM EDT 8:18 PM EDT
Civil Twilight 4:37 AM EDT 8:52 PM EDT
Nautical Twilight 3:54 AM EDT 9:36 PM EDT
Astronomical Twilight 3:01 AM EDT 10:29 PM EDT
Moon 4:52 AM EDT (6/2) 7:32 PM EDT (6/2)
Length of Visible Light 16h 15m
Length of Day
15h 06m
Waning Crescent, 1% of the Moon is Illuminated
Jun 2
Waning Crescent
Jun 3
New
Jun 10
First Quarter
Jun 17
Full
Jun 25
Last Quarter

Hourly Weather History & Observations

Time (EDT) Temp. Dew Point Humidity Pressure Visibility Wind Dir Wind Speed Gust Speed Precip Events Conditions
12:12 AM 57.9 °F 53.1 °F 84% 29.84 in 10.0 mi Variable 3.5 mph - N/A   Overcast
12:52 AM 57.0 °F 54.0 °F 89% 29.83 in 7.0 mi East 3.5 mph - N/A   Overcast
1:52 AM 57.0 °F 54.0 °F 89% 29.82 in 6.0 mi Calm Calm - N/A   Overcast
2:09 AM 57.0 °F 54.0 °F 89% 29.81 in 4.0 mi Calm Calm - N/A   Overcast
2:26 AM 57.0 °F 55.0 °F 93% 29.80 in 2.0 mi Calm Calm - N/A   Overcast
2:30 AM 57.0 °F 55.0 °F 93% 29.80 in 1.8 mi Calm Calm - N/A   Overcast
2:52 AM 57.0 °F 55.0 °F 93% 29.79 in 1.5 mi Calm Calm - N/A   Overcast
3:14 AM 57.0 °F 55.0 °F 93% 29.79 in 1.0 mi Calm Calm - N/A   Overcast
3:35 AM 57.0 °F 55.0 °F 93% 29.79 in 1.2 mi ENE 3.5 mph - N/A   Overcast
3:52 AM 57.0 °F 55.0 °F 93% 29.78 in 1.8 mi East 3.5 mph - N/A   Overcast
3:58 AM 57.0 °F 55.0 °F 93% 29.78 in 3.0 mi ESE 3.5 mph - N/A   Overcast
4:26 AM 57.0 °F 55.9 °F 96% 29.77 in 2.5 mi East 3.5 mph - N/A   Overcast
4:40 AM 57.0 °F 55.0 °F 93% 29.77 in 3.0 mi Calm Calm - N/A   Overcast
4:52 AM 57.0 °F 55.0 °F 93% 29.77 in 2.5 mi ENE 3.5 mph - N/A   Overcast
5:07 AM 57.0 °F 55.9 °F 96% 29.77 in 1.5 mi East 3.5 mph - N/A   Overcast
5:17 AM 57.0 °F 55.0 °F 93% 29.76 in 2.5 mi ENE 4.6 mph - N/A   Overcast
5:32 AM 57.0 °F 55.0 °F 93% 29.76 in 1.0 mi Calm Calm - N/A   Overcast
5:45 AM 57.0 °F 55.0 °F 93% 29.76 in 2.0 mi East 4.6 mph - N/A   Overcast
5:52 AM 57.0 °F 55.0 °F 93% 29.77 in 2.0 mi Calm Calm - N/A   Overcast
6:00 AM 57.0 °F 55.0 °F 93% 29.77 in 1.8 mi Calm Calm - N/A   Overcast
6:13 AM 57.0 °F 55.0 °F 93% 29.77 in 2.0 mi ENE 4.6 mph - N/A   Overcast
6:19 AM 57.0 °F 55.0 °F 93% 29.77 in 1.0 mi NE 3.5 mph - N/A   Overcast
6:36 AM 57.0 °F 55.0 °F 93% 29.77 in 2.0 mi Variable 3.5 mph - N/A   Overcast
6:52 AM 57.0 °F 55.0 °F 93% 29.78 in 2.5 mi Calm Calm - N/A   Overcast
7:04 AM 57.0 °F 55.0 °F 93% 29.78 in 3.0 mi East 3.5 mph - N/A   Overcast
7:25 AM 57.0 °F 55.0 °F 93% 29.78 in 7.0 mi East 3.5 mph - N/A   Overcast
7:52 AM 57.9 °F 55.0 °F 90% 29.77 in 7.0 mi East 3.5 mph - N/A   Overcast
8:10 AM 57.9 °F 54.0 °F 87% 29.77 in 8.0 mi East 5.8 mph - N/A   Overcast
8:52 AM 59.0 °F 54.0 °F 83% 29.78 in 10.0 mi ESE 5.8 mph - N/A   Overcast
9:09 AM 59.0 °F 53.1 °F 81% 29.77 in 10.0 mi SE 5.8 mph - N/A   Overcast
9:52 AM 60.1 °F 54.0 °F 80% 29.78 in 10.0 mi SSE 5.8 mph - N/A   Overcast
10:47 AM 62.6 °F 55.4 °F 77% 29.77 in 10.0 mi SE 5.8 mph - N/A   Mostly Cloudy
10:52 AM 63.0 °F 54.0 °F 72% 29.77 in 10.0 mi Variable 3.5 mph - N/A   Mostly Cloudy
11:52 AM 66.9 °F 55.9 °F 68% 29.75 in 10.0 mi Variable 4.6 mph - N/A   Overcast
12:48 PM 69.8 °F 57.2 °F 64% 29.73 in 10.0 mi Variable 4.6 mph - N/A   Scattered Clouds
12:52 PM 70.0 °F 57.0 °F 63% 29.73 in 10.0 mi SSE 6.9 mph - N/A   Mostly Cloudy
1:52 PM 73.9 °F 57.9 °F 57% 29.69 in 10.0 mi SSE 9.2 mph - N/A   Mostly Cloudy
2:52 PM 75.9 °F 57.9 °F 54% 29.65 in 10.0 mi ESE 9.2 mph - N/A   Partly Cloudy
3:52 PM 75.9 °F 57.9 °F 54% 29.62 in 10.0 mi South 13.8 mph - N/A   Mostly Cloudy
4:52 PM 75.9 °F 57.9 °F 54% 29.61 in 10.0 mi South 8.1 mph - N/A   Overcast
5:17 PM 66.0 °F 57.9 °F 75% 29.63 in 9.0 mi NNW 11.5 mph 29.9 mph 0.00 in Rain , Thunderstorm Light Rain
5:25 PM 64.9 °F 60.1 °F 84% 29.64 in 1.8 mi WNW 15.0 mph 23.0 mph 0.06 in Rain , Thunderstorm Heavy Rain
5:37 PM 64.0 °F 61.0 °F 90% 29.64 in 3.0 mi WNW 9.2 mph - 0.10 in Rain , Thunderstorm Rain
5:42 PM 64.9 °F 61.0 °F 87% 29.64 in 2.5 mi WNW 6.9 mph - 0.12 in Rain Rain
5:52 PM 66.0 °F 61.0 °F 84% 29.64 in 5.0 mi WNW 6.9 mph - 0.13 in Rain Light Rain
6:52 PM 64.0 °F 60.1 °F 87% 29.65 in 10.0 mi ENE 5.8 mph - 0.00 in   Overcast
7:37 PM 62.1 °F 59.0 °F 90% 29.67 in 10.0 mi East 4.6 mph - N/A   Mostly Cloudy
7:52 PM 62.1 °F 59.0 °F 90% 29.68 in 10.0 mi Calm Calm - N/A   Mostly Cloudy
7:59 PM 62.1 °F 59.0 °F 90% 29.68 in 10.0 mi Calm Calm - N/A   Mostly Cloudy
8:07 PM 62.1 °F 59.0 °F 90% 29.68 in 10.0 mi SSE 3.5 mph - N/A   Mostly Cloudy
8:15 PM 62.1 °F 59.0 °F 90% 29.68 in 10.0 mi ESE 3.5 mph - N/A   Overcast
8:22 PM 62.1 °F 57.9 °F 86% 29.68 in 10.0 mi Calm Calm - N/A   Overcast
8:50 PM 60.8 °F 59.0 °F 94% 29.69 in 1.2 mi Calm Calm - 0.18 in Rain Heavy Rain
8:52 PM 61.0 °F 59.0 °F 93% 29.69 in 1.0 mi ENE 3.5 mph - 0.21 in Rain , Thunderstorm Heavy Thunderstorms and Rain
8:58 PM 61.0 °F 59.0 °F 93% 29.67 in 1.2 mi North 4.6 mph - 0.11 in Rain , Thunderstorm Heavy Thunderstorms and Rain
9:00 PM 61.0 °F 59.0 °F 93% 29.67 in 1.0 mi Calm Calm - 0.21 in Rain , Thunderstorm Heavy Thunderstorms and Rain
9:06 PM 61.0 °F 59.0 °F 93% 29.67 in 0.8 mi South 9.2 mph - 0.29 in Rain , Thunderstorm Heavy Thunderstorms and Rain
9:11 PM 61.0 °F 59.0 °F 93% 29.67 in 1.8 mi Calm Calm - 0.30 in Rain , Thunderstorm Light Thunderstorms and Rain
9:13 PM 61.0 °F 59.0 °F 93% 29.67 in 3.0 mi Variable 3.5 mph - 0.30 in Rain , Thunderstorm Light Rain
9:33 PM 61.0 °F 57.9 °F 90% 29.68 in 10.0 mi Calm Calm - 0.30 in Rain Light Rain
9:49 PM 60.8 °F 59.0 °F 94% 29.69 in 2.0 mi East 3.5 mph - 0.47 in Rain , Thunderstorm Heavy Thunderstorms and Rain
9:52 PM 61.0 °F 59.0 °F 93% 29.69 in 1.5 mi Variable 3.5 mph - 0.59 in Rain , Thunderstorm Heavy Thunderstorms and Rain
9:57 PM 61.0 °F 59.0 °F 93% 29.70 in 0.8 mi Variable 3.5 mph - 0.22 in Rain , Thunderstorm Heavy Thunderstorms and Rain
10:05 PM 60.1 °F 59.0 °F 96% 29.71 in 0.5 mi North - - 0.55 in Fog , Rain , Thunderstorm Heavy Thunderstorms and Rain
10:10 PM 60.1 °F 57.9 °F 93% 29.70 in 1.0 mi NNW 6.9 mph - 0.58 in Rain , Thunderstorm Heavy Thunderstorms and Rain
10:13 PM 60.1 °F 57.9 °F 93% 29.71 in 2.0 mi WNW 8.1 mph - 0.60 in Rain , Thunderstorm Heavy Thunderstorms and Rain
10:19 PM 60.1 °F 59.0 °F 96% 29.70 in 2.0 mi WNW 3.5 mph - 0.62 in Rain Heavy Rain
10:29 PM 60.1 °F 59.0 °F 96% 29.70 in 8.0 mi Calm Calm - 0.63 in Rain Light Rain
10:52 PM 61.0 °F 59.0 °F 93% 29.70 in 10.0 mi Calm Calm - 0.63 in   Overcast
11:52 PM 60.1 °F 59.0 °F 96% 29.70 in 10.0 mi SSE 3.5 mph - 0.00 in   Scattered Clouds